Tracking 25953 objects as of 15-Aug-2022
HD Live streaming from Space Station
objects crossing your sky now

DELTA 1 DEB

Track DELTA 1 DEB now!
10-day predictions


NORAD ID: 9313
Int'l Code: 1975-004EQ
Perigee: 709.1 km
Apogee: 836.2 km
Inclination: 97.6 °
Period: 100.1 minutes
Semi major axis: 7143 km
RCS: 0.0187 m2 (small)
Launch date: January 22, 1975
Source: United States (US)
Launch site: AIR FORCE WESTERN TEST RANGE (AFWTR)

Note: This is SATELLITE DEBRIS
aabbcc
Your satellite tracking list
Your tracking list is empty




NASA's NSSDC Master Catalog

Two Line Element Set (TLE):
1 09313U 75004EQ  22227.39288464  .00000114  00000-0  47648-4 0  9990
2 09313  97.5591 201.8134 0088967 141.9199 218.8324 14.37883028434143
Source of the keplerian elements: AFSPC